This is the latest recevied weather packets stored in our database for station/object KA9CBS. If no packets are shown the sender has not sent any weather packets the latest 10 day(s).
| Time | Temp. | Humidity | Pressure | Rain* | Wind** | Luminosity | Snow |
|---|---|---|---|---|---|---|---|
| 1787708003 | 23.33° C | 83% | 1017.8 hPa | 0 mm | - | 0 W/m² | - |
| 1787707699 | 23.33° C | 82% | 1018.1 hPa | 0 mm | - | 0 W/m² | - |
| 1787707394 | 23.89° C | 80% | 1018 hPa | 0 mm | - | 0 W/m² | - |
| 1787707089 | 23.89° C | 80% | 1017.8 hPa | 0 mm | - | 0 W/m² | - |
| 1787706789 | 23.89° C | 79% | 1018 hPa | 0 mm | - | 0 W/m² | - |
| 1787706485 | 24.44° C | 78% | 1017.9 hPa | 0 mm | - | 0 W/m² | - |
| 1787706180 | 25° C | 77% | 1017.7 hPa | 0 mm | - | 0 W/m² | - |
| 1787705875 | 25° C | 76% | 1017.7 hPa | 0 mm | - | 0 W/m² | - |
| 1787705570 | 24.44° C | 78% | 1017.7 hPa | 0 mm | - | 0 W/m² | - |
| 1787705266 | 24.44° C | 77% | 1017.7 hPa | 0 mm | - | 0 W/m² | - |
| 1787704966 | 25° C | 77% | 1017.7 hPa | 0 mm | - | 0 W/m² | - |
| 1787704662 | 25° C | 77% | 1018.1 hPa | 0 mm | - | 0 W/m² | - |
| 1787704358 | 25.56° C | 76% | 1018.1 hPa | 0 mm | - | 0 W/m² | - |
| 1787704052 | 25.56° C | 75% | 1018.1 hPa | 0 mm | - | 3 W/m² | - |
| 1787703751 | 25.56° C | 75% | 1018.1 hPa | 0 mm | - | 4 W/m² | - |
| 1787703447 | 25.56° C | 76% | 1018.2 hPa | 0 mm | - | 6 W/m² | - |
| 1787703142 | 25.56° C | 75% | 1017.8 hPa | 0 mm | - | 11 W/m² | - |
| 1787702838 | 26.11° C | 75% | 1018.1 hPa | 0 mm | - | 13 W/m² | - |
| 1787702533 | 26.11° C | 75% | 1018.1 hPa | 0 mm | - | 16 W/m² | - |
| 1787702229 | 26.67° C | 75% | 1018.1 hPa | 0 mm | - | 19 W/m² | - |
| 1787701923 | 27.22° C | 75% | 1018.1 hPa | 0 mm | - | 26 W/m² | - |
| 1787701620 | 27.78° C | 75% | 1018 hPa | 0 mm | - | 27 W/m² | - |
| 1787701315 | 27.78° C | 71% | 1017.9 hPa | 0 mm | - | 31 W/m² | - |
| 1787701011 | 28.33° C | 66% | 1018 hPa | 0 mm | - | 33 W/m² | - |
| 1787700705 | 28.89° C | 66% | 1018.2 hPa | 0 mm | - | 37 W/m² | - |
* Rain latest hour (hover to see other rain measurements)
** Current wind speed in m/s (hover to see current wind gust speed)